GFSNGP_700_spd_096.txt.gz
Wind_Speed
5 7 5 6 8 5 13 15 21 23 16 14 17 16 17 19 20 22 22 22 20 18 15 15 19 22 13 14 14 21 25 19 33 28 25 24 22 22 21 19 18 18 17 17
12 10 7 6 7 9 8 13 14 21 25 20 20 20 19 17 19 19 18 22 21 21 16 16 18 25 21 13 16 18 23 27 32 30 27 24 25 24 23 23 22 21 20 20
10 15 14 8 9 8 12 13 15 20 21 22 25 24 20 21 22 19 16 17 25 21 18 15 15 19 21 19 19 18 6 16 25 31 28 23 26 27 28 28 27 26 24 24
2 5 4 4 11 8 12 15 18 16 20 23 29 30 27 24 20 18 16 15 22 24 21 18 17 17 18 18 19 17 11 10 15 14 29 24 25 30 38 33 29 29 28 25
3 2 4 8 3 4 3 13 16 13 17 27 32 31 29 25 21 19 18 16 18 20 19 16 16 16 14 19 18 17 15 12 17 15 23 23 27 24 29 39 32 27 32 29
4 4 3 12 7 6 4 12 17 15 11 14 18 23 24 23 16 13 14 17 18 18 19 20 20 17 16 17 17 14 9 11 13 13 10 8 13 14 10 34 43 48 34 34
9 3 9 11 2 5 1 6 10 15 13 16 15 11 11 19 18 14 12 10 14 18 17 16 15 15 15 15 15 14 11 11 13 15 13 10 10 11 7 7 9 13 19 33
5 2 4 10 10 4 1 10 2 7 15 14 16 11 8 17 19 18 14 13 13 11 11 10 11 12 12 12 13 13 13 12 13 14 14 14 18 19 19 15 16 15 15 18
5 4 1 7 9 10 11 11 8 5 12 9 16 9 17 23 21 17 13 11 9 8 6 7 8 10 11 13 15 15 15 16 17 17 17 17 17 18 19 19 20 21 21 22
5 6 4 3 1 3 4 16 9 4 6 8 8 9 17 18 15 12 12 9 6 3 3 6 10 14 17 18 20 21 21 22 23 23 24 25 26 26 27 28 27 28 29 29
2 8 6 3 1 2 5 6 8 9 7 8 13 14 9 11 17 12 7 6 7 8 10 13 14 16 18 21 25 28 28 28 28 28 28 28 29 30 31 31 31 31 32 32
3 4 7 6 5 3 2 3 3 4 6 11 10 10 6 6 9 10 10 12 15 18 19 22 22 23 24 24 24 24 25 26 27 28 29 28 28 28 28 28 28 29 29 29
5 6 7 7 7 8 7 4 3 2 4 6 8 7 9 10 11 14 18 21 24 25 26 26 25 25 25 26 25 24 24 24 25 25 25 25 25 25 25 25 25 24 23 23
8 9 11 10 12 12 11 11 10 8 7 6 6 8 11 16 20 22 23 26 28 28 27 27 26 25 24 23 24 24 24 23 23 23 23 22 21 21 20 21 21 21 21 22
13 14 15 16 17 17 18 18 18 16 15 13 13 12 12 13 14 17 21 22 24 24 25 25 25 24 24 24 24 24 24 23 22 21 20 19 19 18 18 18 19 20 21 22
8 11 14 18 21 24 25 26 24 22 21 22 21 19 16 17 17 17 19 21 22 23 24 24 24 24 24 24 24 24 24 23 22 21 20 19 18 19 19 20 22 23 23 23
7 9 10 10 12 15 17 19 24 30 29 28 27 24 21 19 18 19 17 16 18 22 25 25 25 25 25 24 24 24 24 23 22 21 21 22 22 22 22 22 22 23 23 24
6 6 6 6 7 10 12 14 14 16 19 24 28 27 25 25 23 22 21 21 21 20 19 20 20 22 24 24 25 25 24 24 24 23 23 23 23 23 23 24 24 24 25 26
6 6 7 7 9 9 10 12 14 14 16 18 21 23 24 27 33 23 26 25 23 28 18 19 21 20 19 22 24 25 25 25 24 24 23 23 23 23 23 24 24 25 26 28
8 8 10 12 15 15 16 16 16 16 20 20 21 22 25 28 28 29 29 31 24 27 24 28 27 24 23 22 23 24 25 25 25 24 23 22 22 22 23 23 24 25 27 29
10 12 13 14 15 16 17 16 16 15 16 18 22 25 25 26 26 30 29 32 25 31 28 31 39 31 28 25 24 23 24 24 24 24 23 22 22 23 25 26 27 28 29 29
12 14 14 15 15 14 12 11 12 13 14 16 18 19 22 24 25 26 29 30 28 32 32 33 33 33 34 29 27 24 24 25 25 25 24 24 24 25 27 28 28 28 28 28
11 12 14 14 11 9 10 11 12 12 13 15 17 19 21 23 26 29 30 31 33 33 34 28 29 33 41 36 32 27 26 25 25 26 26 25 25 26 26 25 25 26 27 28
12 12 12 10 10 11 11 11 11 11 12 13 14 16 17 19 22 26 28 28 28 30 33 34 36 40 30 41 38 34 31 28 26 25 25 24 22 22 22 23 25 26 28 29
11 10 10 10 9 8 9 8 8 9 10 11 12 13 14 17 18 19 23 27 30 30 29 29 30 33 35 38 44 45 40 34 32 27 23 21 19 19 18 20 23 24 26 27
9 8 10 9 8 8 6 6 7 8 8 8 9 11 13 18 18 19 15 11 14 18 24 24 25 27 27 29 32 33 38 39 36 31 25 19 16 18 19 22 24 25 27 28
8 8 7 7 6 7 7 6 6 6 8 9 9 11 11 12 14 18 16 12 9 11 11 15 23 28 28 28 24 27 33 47 38 29 27 20 15 19 22 25 26 25 26 27

GFSNGP_700_spd_102.txt.gz
Wind_Speed
13 7 5 10 13 17 20 26 24 20 20 17 17 18 13 13 17 26 28 26 25 23 25 23 24 26 28 24 28 37 38 39 35 32 27 25 23 25 25 24 22 20 19 19
12 9 9 11 13 12 15 20 25 22 16 12 17 13 20 16 15 22 26 24 23 24 24 23 22 22 22 17 19 22 42 44 42 37 37 29 23 23 24 24 23 19 18 20
18 10 12 16 18 13 11 13 14 22 22 16 23 20 13 17 18 19 22 22 22 22 23 22 21 20 22 22 17 15 20 30 27 33 25 33 34 26 23 23 22 20 20 22
18 7 15 6 4 6 7 10 9 15 16 19 22 22 20 17 18 17 18 18 21 21 22 20 22 22 21 25 19 17 14 12 13 11 20 33 35 37 27 22 21 19 19 21
9 19 9 6 2 2 6 6 7 9 20 22 24 23 25 25 23 20 19 20 19 19 20 21 23 23 24 26 25 24 21 18 19 12 10 15 22 27 23 23 22 25 26 27
6 7 10 6 2 9 8 10 7 8 15 20 21 24 27 29 28 27 24 22 21 20 20 23 22 20 18 20 30 26 25 20 19 16 16 16 16 20 27 25 26 27 30 35
10 7 4 4 8 8 8 4 9 12 11 13 14 21 23 24 25 26 23 20 17 17 18 18 25 22 23 23 29 29 26 21 18 14 12 14 13 12 16 27 26 15 10 13
8 9 7 5 3 5 6 6 7 9 12 15 18 21 19 13 16 17 18 16 14 17 18 21 21 25 22 23 25 24 25 21 17 19 17 15 13 13 13 17 18 14 13 10
4 2 3 4 3 7 12 6 6 8 7 12 16 15 15 17 18 14 13 21 24 23 22 22 25 29 30 23 24 23 22 21 20 19 19 19 19 17 19 20 19 19 17 15
6 4 2 1 3 5 4 10 8 8 1 7 12 16 19 22 20 23 24 23 21 21 24 27 23 22 19 19 19 18 18 20 20 20 20 20 20 20 20 20 19 19 20 19
6 5 4 3 1 2 3 2 9 9 3 2 8 14 20 25 29 30 27 26 24 21 17 16 15 15 15 15 15 16 17 17 19 20 21 21 21 21 21 22 23 24 25 25
5 6 7 5 3 3 2 1 1 7 10 15 1 15 11 20 24 24 27 21 19 18 17 15 13 11 11 11 12 14 16 17 19 21 24 25 25 26 27 27 28 28 28 27
9 8 8 7 6 4 3 3 3 3 5 5 10 15 12 14 3 21 22 17 12 12 10 10 11 10 10 11 12 13 15 17 19 20 22 23 23 24 25 27 27 27 28 28
10 8 9 9 9 7 6 4 3 2 2 2 3 5 8 11 16 7 15 14 15 19 15 16 17 17 15 17 17 19 19 20 21 22 22 24 25 23 23 25 25 25 26 26
12 12 13 12 12 11 10 10 8 8 7 6 6 5 6 5 4 6 10 13 16 19 19 19 19 22 24 25 24 27 28 25 21 21 23 23 22 23 25 24 24 24 24 23
10 10 11 12 12 13 13 13 13 14 12 12 12 12 12 11 12 12 13 12 15 16 19 18 19 19 19 20 19 19 19 18 18 20 19 21 22 23 22 21 22 23 23 23
7 8 11 13 13 12 11 12 14 17 17 18 19 18 17 17 18 18 18 19 20 19 20 20 20 19 18 18 18 19 19 18 20 21 22 22 21 20 21 21 22 22 22 20
10 10 10 11 11 11 12 13 13 14 14 15 16 18 23 25 23 22 22 23 23 21 21 23 21 20 19 19 18 18 19 22 22 22 23 22 22 21 21 21 21 21 20 19
10 9 10 10 10 10 12 13 14 15 16 17 17 18 19 20 24 29 30 32 30 29 25 27 26 25 25 23 21 21 20 20 22 23 24 24 22 22 22 22 21 20 20 20
9 9 10 11 11 12 13 14 15 16 16 17 17 18 19 21 22 23 25 29 31 30 30 30 30 31 33 33 30 31 28 22 22 22 23 23 23 23 23 22 21 21 20 20
11 11 12 12 13 14 15 16 16 16 15 14 14 14 15 17 18 21 23 23 27 29 31 35 34 38 36 38 39 32 36 31 28 25 24 24 25 24 23 23 22 21 21 21
12 13 14 14 15 16 16 16 16 16 15 14 14 15 15 16 16 16 17 19 22 28 29 32 36 37 35 34 33 34 36 29 27 32 30 28 27 26 25 24 23 22 22 22
16 17 17 17 18 17 16 15 14 14 15 15 15 15 15 15 15 15 16 19 19 23 24 27 30 30 31 35 34 32 31 29 26 25 34 36 30 28 28 27 25 24 23 23
16 17 18 18 18 17 15 15 15 15 14 14 14 14 14 14 15 14 15 16 19 23 25 26 28 30 32 35 35 35 33 34 35 36 41 43 34 31 29 29 28 26 25 25
18 17 17 17 16 15 15 14 14 14 13 13 12 12 12 11 12 13 13 15 16 17 19 19 22 28 31 29 31 32 34 35 34 28 24 35 38 36 32 30 26 25 24 24
15 17 17 15 14 14 13 14 13 13 12 11 11 11 11 11 12 13 14 14 13 12 12 12 13 13 16 23 26 30 29 29 31 32 31 33 30 34 31 31 29 27 27 27
17 16 16 15 14 13 12 13 13 12 10 10 10 10 9 11 11 9 10 10 10 11 14 14 14 14 12 16 22 25 28 29 28 31 28 29 25 35 31 31 26 28 30 28

GFSNGP_700_spd_105.txt.gz
Wind_Speed
6 11 11 10 18 22 19 23 19 15 12 9 11 9 9 10 15 23 29 30 28 26 27 37 42 38 38 36 37 34 30 41 36 30 27 25 23 22 22 23 21 20 19 19
20 8 10 12 11 9 13 18 21 21 18 5 9 7 11 15 12 15 22 25 25 26 24 30 36 35 34 33 31 29 29 26 38 35 32 29 28 24 23 24 24 23 21 20
17 13 13 18 18 14 18 15 19 21 23 8 4 4 9 14 15 14 20 27 26 25 23 25 27 28 28 25 25 25 23 22 28 38 40 40 35 32 31 28 21 23 22 21
19 10 10 11 9 7 8 12 10 16 12 14 10 9 13 16 12 17 20 24 28 26 25 26 24 24 22 22 22 23 22 18 18 27 31 34 36 38 38 28 19 21 23 21
18 21 13 13 4 5 8 9 13 11 13 10 16 20 25 20 16 15 18 22 24 21 20 23 25 24 22 20 21 23 21 15 12 12 11 15 22 24 31 35 32 28 22 20
7 9 17 11 4 4 6 16 5 25 6 13 16 18 18 26 21 18 20 24 23 22 22 25 27 27 27 26 24 27 24 22 18 16 16 12 10 16 24 34 33 31 29 21
10 7 5 5 4 8 14 5 6 14 20 14 14 19 18 28 23 21 22 25 25 23 23 22 24 24 23 22 26 26 28 27 24 19 17 17 17 15 13 18 25 24 23 24
12 7 13 3 2 3 5 3 5 12 12 15 18 20 20 21 16 15 17 22 22 21 18 19 20 24 25 24 22 23 30 26 26 23 19 13 14 15 16 15 24 23 21 18
4 6 3 2 4 5 7 6 6 12 13 14 16 19 18 20 13 14 17 21 21 19 15 21 23 21 24 27 29 24 29 28 28 24 20 18 17 14 13 13 17 20 19 17
7 1 0 4 3 5 7 2 5 10 11 7 14 20 15 14 13 17 17 16 20 23 22 21 22 27 26 27 29 31 27 26 26 24 22 21 21 19 20 19 20 21 20 20
4 6 2 3 4 4 5 5 8 8 8 7 6 9 15 23 23 23 23 25 26 23 24 27 29 28 26 26 30 28 25 24 22 23 24 22 21 21 19 19 20 22 23 23
9 11 9 7 6 4 3 5 5 6 10 7 10 5 13 16 20 24 26 27 23 20 18 17 19 16 19 20 21 19 17 18 19 20 20 22 22 22 23 24 25 26 27 27
7 8 10 12 9 8 7 6 3 3 5 5 6 13 11 15 10 11 17 19 12 9 11 10 11 11 11 12 12 12 15 13 15 18 21 23 25 26 27 27 28 29 29 29
14 10 8 7 6 9 9 8 5 5 6 4 3 5 6 8 10 11 7 8 9 5 3 7 9 10 8 7 8 14 18 14 13 16 19 21 23 24 25 25 27 26 26 25
13 10 7 11 10 10 10 9 7 5 6 8 8 8 8 8 5 3 3 6 19 17 13 17 11 13 17 22 19 20 20 17 20 22 21 21 21 22 23 25 26 25 24 26
11 11 10 8 8 10 9 8 6 10 8 8 10 10 9 7 7 9 14 14 9 8 11 15 19 19 19 18 19 24 22 24 22 24 25 26 26 25 26 26 24 26 24 23
10 9 9 8 8 9 10 10 11 11 11 11 12 13 14 14 15 15 15 16 18 18 17 17 17 19 20 19 18 18 19 20 21 23 25 26 29 26 24 24 23 21 21 20
10 9 8 8 7 7 8 10 12 14 15 14 14 13 17 17 18 18 19 20 19 19 18 18 20 21 19 19 19 18 19 19 20 21 22 22 23 23 23 23 23 22 24 21
13 13 13 12 9 7 7 4 5 9 11 12 13 14 13 13 14 19 22 21 23 24 22 22 23 25 25 23 23 22 22 20 19 18 20 23 23 23 23 23 25 25 26 23
13 12 11 11 12 11 10 10 10 10 10 10 11 12 12 11 11 13 17 19 21 24 25 25 25 26 25 26 25 27 26 27 25 25 22 22 23 24 25 26 26 27 26 25
10 11 12 12 13 15 15 15 14 13 12 17 17 17 18 18 18 17 15 13 15 19 21 26 30 30 30 32 34 29 30 31 29 28 29 26 24 23 25 26 27 27 28 26
10 11 11 11 12 13 15 15 17 18 19 19 17 15 17 17 17 17 18 16 22 25 25 25 24 25 27 28 31 33 33 34 31 28 29 29 28 24 25 26 27 28 26 27
12 13 14 15 15 14 17 17 18 18 17 15 15 17 15 15 16 15 14 21 18 22 19 22 27 28 30 31 31 30 28 29 31 28 28 26 25 24 25 27 28 30 27 27
16 16 18 17 17 19 19 18 18 17 15 15 16 14 13 11 12 15 14 17 18 19 20 22 24 22 24 28 29 29 29 30 30 30 30 29 25 30 33 25 27 25 26 26
20 19 18 19 19 19 19 18 15 16 15 15 13 12 12 11 13 16 15 18 15 17 18 15 16 18 20 21 21 26 30 30 31 30 31 33 33 28 32 34 30 30 29 29
25 24 20 18 18 17 14 14 12 14 10 11 10 8 8 10 10 7 12 12 11 8 8 14 11 13 13 13 13 14 21 27 29 29 29 30 33 30 26 24 30 33 38 27
34 35 33 22 19 17 14 13 11 12 11 9 8 8 7 7 9 9 8 8 8 12 15 12 12 13 12 12 12 11 15 22 25 25 28 31 32 30 26 28 26 30 32 34

GFSNGP_700_spd_108.txt.gz
Wind_Speed
7 7 14 12 10 16 22 19 19 12 13 22 17 16 16 20 25 20 17 15 27 31 32 28 25 19 15 19 22 26 25 23 20 26 31 23 19 21 18 15 14 17 18 17
10 9 8 13 10 12 12 23 19 14 6 7 10 15 17 23 28 19 14 17 22 26 25 24 25 27 28 29 33 32 31 33 33 28 26 32 28 22 20 21 19 19 20 21
16 8 12 13 13 10 11 8 12 15 5 1 12 15 18 16 22 20 17 21 21 20 19 19 18 27 34 38 36 33 32 32 30 27 21 34 30 28 25 25 26 24 22 24
14 6 5 4 7 10 7 12 9 9 5 6 12 18 20 3 2 10 14 20 23 24 21 20 18 20 29 33 30 29 28 28 26 24 23 26 34 35 32 29 30 34 27 21
18 17 15 5 5 4 8 3 12 16 16 17 6 4 1 8 10 9 9 11 14 17 19 17 18 20 22 22 21 22 22 21 19 16 10 10 19 33 36 32 30 35 28 30
8 17 5 3 9 12 3 4 10 13 24 26 25 14 11 6 11 11 6 11 15 15 13 14 16 20 22 22 23 22 19 19 18 13 9 9 9 11 20 24 22 20 22 26
12 10 8 11 3 4 7 7 7 15 20 15 20 20 22 23 17 14 14 16 17 18 17 19 23 20 22 24 26 26 24 23 23 21 18 14 16 17 13 12 15 21 25 22
4 6 15 10 8 10 7 12 18 11 10 11 12 22 23 20 17 17 13 13 19 22 24 25 25 23 24 25 26 28 29 25 28 27 25 21 17 15 15 14 16 14 19 16
9 4 8 10 6 4 5 1 11 19 20 16 16 17 19 18 17 13 13 12 13 17 20 21 22 22 22 22 23 21 22 24 26 29 26 26 20 14 16 18 17 17 21 19
5 8 10 8 4 2 7 5 13 16 14 14 13 14 14 15 13 13 14 15 18 19 20 16 19 19 19 20 22 22 25 26 27 29 29 28 23 24 21 18 18 18 21 20
4 4 2 5 3 3 3 4 7 9 12 6 7 13 14 10 14 15 17 16 16 19 21 22 22 20 22 30 25 26 30 28 27 30 27 26 25 22 20 20 20 20 22 21
9 7 7 8 3 3 4 5 6 7 6 6 7 13 10 7 14 17 18 21 21 23 21 20 23 25 25 23 22 24 27 24 26 27 27 25 24 24 25 24 25 26 25 23
4 9 4 7 7 3 1 6 7 6 5 5 6 5 8 3 5 11 6 11 13 15 13 13 13 19 16 15 12 13 20 22 25 24 25 22 20 22 23 24 25 26 26 27
9 10 7 5 4 3 4 6 9 8 5 5 4 5 3 4 5 6 7 13 9 13 12 7 9 13 12 9 9 7 9 8 10 9 16 19 18 19 21 22 26 26 26 28
9 7 2 7 9 6 4 3 4 9 9 7 9 7 5 6 4 5 4 5 7 9 11 11 18 21 12 9 13 12 13 15 14 16 15 16 17 18 19 19 22 20 24 25
8 9 9 8 7 7 7 6 5 11 12 10 13 10 9 10 7 7 10 8 11 10 12 12 14 16 17 15 14 15 19 17 30 31 26 29 29 27 29 27 26 24 23 24
11 11 11 10 10 10 9 10 8 7 12 10 12 14 12 11 10 9 10 12 14 13 13 13 12 9 9 11 9 12 15 16 21 25 27 25 28 29 23 22 23 26 32 29
12 12 11 9 10 8 9 12 18 20 16 17 16 14 15 13 17 17 17 16 17 18 17 16 15 15 13 13 14 13 11 13 15 17 17 18 21 23 23 23 24 27 30 24
13 13 13 10 10 9 9 8 6 11 19 20 23 22 20 14 14 16 18 20 19 20 18 20 19 20 20 19 19 17 17 17 16 16 17 17 17 18 20 21 23 26 26 24
12 13 12 13 12 12 11 11 11 11 13 9 14 13 13 15 16 22 21 19 19 24 22 19 18 19 23 19 18 19 21 26 29 25 22 20 19 17 18 20 21 23 25 27
11 12 12 13 13 14 15 15 13 12 13 19 18 17 15 16 17 16 14 12 16 16 19 21 21 24 22 24 28 26 25 23 24 26 29 25 23 22 21 21 22 22 24 25
9 11 11 12 12 11 12 16 14 13 15 21 19 18 19 15 14 15 14 15 20 21 21 19 25 28 21 23 24 26 30 26 26 25 30 27 28 27 24 24 26 24 24 21
10 10 11 12 11 15 18 20 13 16 18 19 19 18 16 13 13 12 13 18 19 15 16 23 24 23 22 24 27 30 31 29 29 29 26 24 25 28 26 29 23 23 24 25
15 15 15 14 15 21 23 19 17 19 17 17 17 17 15 11 13 18 16 17 18 18 17 20 21 22 22 23 24 23 24 24 24 26 28 29 30 25 26 30 22 23 28 31
18 19 21 21 25 25 24 20 20 20 18 16 17 14 13 13 15 17 23 17 16 16 17 17 18 18 17 17 17 19 21 19 25 27 27 28 28 32 32 30 28 28 28 37
25 25 30 30 26 29 34 23 17 14 15 12 12 10 9 12 12 16 14 9 14 11 11 15 16 14 14 16 17 16 14 14 19 21 23 25 27 27 28 29 31 30 27 30
26 27 28 32 34 37 36 22 18 13 11 8 13 4 10 11 12 10 8 8 8 8 11 16 17 20 20 16 13 11 10 11 13 16 19 22 23 26 28 29 29 28 29 26

GFSNGP_700_spd_111.txt.gz
Wind_Speed
4 2 15 13 14 11 10 14 18 5 3 11 14 13 13 12 7 15 23 16 25 28 30 33 40 32 34 29 38 27 28 24 12 13 17 14 14 17 17 13 13 16 15 16
8 6 3 7 12 15 11 17 21 10 14 2 19 18 16 13 24 25 23 19 19 25 30 26 33 34 26 22 25 23 27 27 24 18 21 24 25 24 24 21 15 13 15 20
9 8 1 1 7 11 10 19 11 15 13 8 5 4 13 18 26 5 19 15 16 18 27 26 24 23 24 28 21 21 19 26 23 24 28 29 25 23 25 30 20 19 17 17
10 3 4 8 13 1 3 11 13 6 6 3 4 1 1 10 6 10 9 10 14 12 16 23 23 20 20 27 28 26 24 23 26 27 29 29 28 26 32 25 21 19 19 22
14 10 7 4 4 8 7 5 9 7 7 3 4 7 6 8 7 14 12 11 15 16 19 18 18 16 16 19 26 28 28 27 28 28 25 23 24 22 28 31 29 29 26 27
10 3 2 3 6 7 9 5 5 13 11 7 3 5 3 4 9 11 1 8 12 15 11 15 16 14 15 17 19 22 24 27 26 21 18 12 7 5 11 22 31 34 29 23
14 4 1 4 5 8 5 3 7 11 20 16 6 2 2 2 9 11 15 12 17 15 11 13 14 14 14 15 17 22 21 19 18 17 17 17 13 11 12 14 14 17 19 17
3 3 7 9 7 4 3 3 10 12 16 21 20 6 7 9 12 15 21 21 17 17 18 18 19 18 18 18 19 20 20 20 22 22 21 21 21 16 15 15 13 11 14 15
5 3 8 11 4 4 7 13 9 11 15 18 18 17 10 12 14 16 16 18 18 16 20 21 21 21 21 22 23 25 28 28 31 29 26 24 26 23 20 17 18 16 17 16
3 3 3 5 14 5 7 10 9 12 11 14 15 13 10 14 16 16 18 21 17 16 17 19 20 21 20 19 21 20 20 19 19 22 25 23 24 24 23 19 18 18 16 16
7 4 8 4 6 9 10 8 3 4 6 7 9 10 7 8 13 14 14 15 14 15 16 19 16 13 16 20 18 17 24 23 25 27 28 22 21 23 19 22 21 20 18 15
7 6 5 5 5 6 11 6 2 1 3 6 8 13 7 7 2 5 10 13 16 14 16 16 19 21 21 20 19 19 28 24 25 25 30 31 24 24 23 23 24 25 24 22
11 10 11 4 8 7 10 7 3 3 1 4 6 8 9 7 9 3 3 5 8 14 19 19 21 19 17 19 19 22 25 24 21 25 30 29 27 25 26 24 28 29 27 26
6 6 11 7 3 9 9 8 4 4 4 5 3 5 6 4 3 2 4 4 4 8 7 8 11 16 19 23 16 21 18 20 18 17 14 19 19 24 27 26 23 26 28 31
11 9 1 3 7 8 8 6 4 4 10 10 3 4 3 4 2 3 3 2 3 2 4 7 10 13 15 14 16 15 13 14 10 9 10 12 13 15 20 22 19 17 19 22
14 14 8 9 15 7 5 4 5 9 13 11 10 12 9 5 4 3 4 2 3 5 5 4 5 8 11 15 17 17 14 17 20 18 21 24 27 27 28 29 29 29 24 21
13 15 21 14 9 8 13 14 9 12 14 7 11 10 14 7 6 7 7 8 8 9 8 7 7 6 5 7 10 11 15 19 16 16 18 20 23 25 25 24 25 24 21 23
14 14 14 15 22 17 16 14 20 20 19 17 13 10 14 16 12 15 15 14 13 12 11 12 13 11 10 9 9 9 9 9 11 12 12 12 15 15 17 19 24 30 29 27
15 17 19 12 15 14 14 12 14 23 27 26 22 21 22 26 24 20 13 15 15 15 16 14 16 15 15 14 13 14 13 12 11 12 14 15 16 17 17 17 17 20 23 22
15 18 17 15 15 16 16 12 10 13 14 17 19 24 27 27 26 26 23 21 21 23 20 21 21 17 17 16 18 17 17 20 20 20 19 16 15 16 18 18 18 18 20 20
11 13 12 13 14 14 16 16 15 16 16 17 15 14 12 14 16 17 17 16 18 18 19 21 18 18 19 16 21 19 19 22 25 25 25 25 23 20 20 20 19 20 19 21
7 8 9 8 10 12 11 13 13 14 18 18 20 17 15 15 17 16 19 19 18 20 21 17 16 20 18 19 25 23 24 23 24 24 22 28 26 28 23 20 19 19 18 22
6 7 7 8 8 10 10 13 14 11 15 18 20 19 18 17 17 18 19 15 12 14 16 17 19 22 22 23 25 26 27 28 28 27 31 30 31 30 26 23 23 20 26 29
9 10 11 11 12 13 15 21 20 16 19 22 21 18 17 14 15 15 16 17 17 19 18 18 19 21 22 23 24 24 25 26 26 26 26 25 26 26 25 25 28 25 28 27
13 16 17 18 19 20 22 20 23 25 27 26 21 15 16 18 19 16 16 17 16 15 17 18 18 18 18 18 18 18 18 18 19 22 24 25 27 26 26 28 28 29 31 28
15 19 21 21 22 26 29 27 26 31 32 26 21 21 18 18 16 15 16 17 18 15 11 7 8 8 9 10 11 13 13 14 15 16 17 19 21 24 26 27 29 30 30 30
20 20 26 29 32 31 31 35 36 38 40 24 14 11 8 9 6 7 7 6 4 9 9 13 11 16 20 15 14 14 9 8 9 12 14 15 17 20 23 26 26 31 30 30

GFSNGP_700_spd_114.txt.gz
Wind_Speed
14 9 10 7 11 14 13 11 5 2 5 13 13 11 11 11 18 24 26 25 20 30 40 45 38 31 36 27 27 29 30 27 22 19 20 22 17 15 12 15 17 19 19 18
5 12 10 10 6 10 9 11 6 10 9 11 10 11 9 17 11 12 22 28 22 21 27 39 38 35 33 34 30 38 34 28 28 22 22 19 17 21 19 18 19 18 18 19
3 1 6 5 7 5 10 9 2 4 7 5 4 1 9 12 10 15 9 19 27 20 24 32 36 31 29 26 28 22 21 31 31 31 24 17 20 19 23 17 27 19 18 16
7 3 2 10 8 5 7 8 10 9 10 9 8 6 5 2 7 10 16 12 22 17 23 26 27 24 25 24 27 23 22 21 21 20 25 23 19 22 26 24 24 30 25 25
2 1 8 10 8 7 3 2 4 7 4 5 4 6 5 5 3 3 6 8 10 14 13 14 17 20 23 23 26 27 26 21 23 23 24 23 22 26 25 26 25 30 25 26
3 4 5 11 10 9 12 8 4 3 5 5 4 1 2 2 1 6 8 9 9 10 14 17 18 19 21 13 15 28 35 29 29 27 27 26 22 15 13 11 18 25 25 27
12 2 5 7 11 6 8 8 7 8 7 5 5 1 3 5 2 8 11 8 8 9 10 10 13 14 10 20 19 16 28 35 31 23 21 14 15 15 12 10 9 13 20 24
8 10 10 8 4 8 9 8 7 6 9 13 13 14 9 9 14 13 16 17 17 16 12 15 13 11 10 11 10 11 13 10 12 15 16 15 19 20 17 14 14 16 16 18
6 7 3 3 5 8 5 8 5 9 11 12 13 13 11 12 12 15 19 20 19 17 17 16 18 16 16 16 18 15 16 16 18 17 16 16 17 20 22 21 19 16 16 19
7 4 3 6 13 10 2 4 10 8 13 12 11 11 12 12 15 17 16 18 15 13 13 17 18 18 17 17 17 19 22 23 22 24 25 24 23 24 17 16 20 19 17 16
10 9 7 6 6 7 9 2 5 7 9 5 7 8 7 10 10 10 10 10 5 8 9 9 9 11 10 11 11 11 11 14 15 14 18 23 22 22 26 24 21 19 16 17
12 8 3 4 6 5 5 5 5 6 6 6 6 7 6 6 4 7 4 4 5 5 6 3 10 11 10 11 10 10 12 17 17 19 16 22 25 25 25 20 25 26 16 18
9 9 7 6 5 9 6 6 6 7 8 6 3 2 6 4 3 4 5 5 6 8 9 8 10 13 11 9 11 16 20 20 17 21 23 24 26 28 23 24 27 30 27 25
8 8 13 13 8 9 9 4 5 5 3 2 1 2 3 5 3 2 2 3 4 4 6 8 8 8 6 8 11 15 16 20 19 22 22 25 27 26 29 27 26 24 24 28
4 8 7 9 9 6 5 5 7 4 3 5 2 6 4 1 3 4 3 2 4 3 2 6 8 6 8 9 11 12 12 13 11 12 12 13 12 16 23 17 16 16 18 20
10 15 13 10 7 9 9 9 1 5 3 1 4 7 5 1 2 2 2 3 2 1 2 3 3 6 9 10 9 11 15 17 17 17 19 20 19 19 21 23 25 26 26 25
14 18 21 15 13 14 14 12 10 10 9 5 6 7 3 4 1 3 4 6 7 7 4 4 5 5 5 4 6 9 11 15 17 18 19 21 23 22 24 26 26 24 24 23
12 15 22 19 20 18 17 15 16 19 18 13 11 10 11 8 8 8 12 14 14 12 10 11 11 9 9 10 9 9 9 9 9 11 13 14 15 16 16 18 20 22 23 25
17 18 17 17 21 23 26 22 17 17 20 21 19 16 19 20 16 17 17 18 16 13 13 17 17 16 15 14 15 16 14 12 12 12 13 14 15 16 17 18 20 21 21 21
19 18 18 19 16 16 18 18 15 15 17 21 24 23 24 23 20 21 27 28 25 20 19 21 21 18 21 20 20 19 18 20 20 20 21 20 19 17 17 17 18 21 22 20
14 15 16 15 14 14 14 15 14 13 14 15 14 17 17 17 18 19 21 20 22 20 20 19 20 20 16 18 21 20 20 22 23 22 21 22 22 23 20 18 18 21 23 22
10 12 12 12 13 12 12 12 12 11 12 13 13 13 13 13 15 18 20 21 19 19 19 18 18 18 19 19 20 20 25 25 26 27 26 27 26 22 27 28 24 24 20 19
5 5 6 7 7 6 8 9 9 8 9 10 12 13 16 17 19 21 20 18 18 17 15 16 19 19 19 21 22 23 23 24 25 26 27 29 30 27 30 31 26 29 24 25
5 7 7 8 9 11 9 10 13 9 8 12 17 18 19 20 19 20 18 19 19 17 15 15 16 18 20 21 22 23 24 24 23 22 23 25 27 27 26 26 26 29 26 26
7 7 9 13 16 14 14 18 19 17 17 17 21 29 30 21 17 16 17 18 16 14 14 16 16 15 16 17 17 17 16 17 19 19 19 20 21 24 25 26 28 30 31 31
13 15 15 16 19 22 23 26 28 28 25 27 32 33 35 23 20 18 15 14 12 10 6 7 5 1 4 7 9 11 10 10 12 13 14 14 15 16 19 23 26 29 31 33
19 21 23 24 26 28 29 30 34 34 37 38 42 40 30 13 12 10 9 8 7 5 5 2 2 5 8 10 9 15 13 12 13 13 12 12 12 14 18 23 28 31 33 32

GFSNGP_700_spd_117.txt.gz
Wind_Speed
15 11 14 3 3 7 4 2 5 5 7 8 7 5 2 4 5 10 14 7 9 16 30 42 38 35 32 29 27 27 25 25 22 23 20 21 20 19 20 17 19 24 23 20
4 21 11 4 2 4 3 3 4 5 9 7 3 3 3 3 4 9 13 16 17 16 19 34 38 37 37 30 31 31 27 26 28 29 30 26 26 24 20 19 11 24 24 24
3 3 22 16 9 5 2 7 7 9 6 6 2 2 0 5 7 7 4 3 13 21 19 23 29 36 37 38 34 35 33 28 22 31 34 30 25 27 23 20 28 15 25 23
6 4 5 10 14 9 6 9 12 13 13 10 3 5 7 2 2 13 14 16 15 21 21 18 17 22 31 36 34 30 37 33 25 30 35 39 30 24 25 29 20 22 22 31
5 3 5 14 12 16 15 9 7 11 10 9 4 5 5 6 1 2 3 2 3 23 25 18 16 23 29 35 37 36 29 24 24 28 32 43 35 27 28 25 26 25 23 23
10 6 7 13 14 11 11 9 7 5 2 2 1 6 3 1 2 1 3 5 6 10 13 18 18 15 21 22 25 27 29 30 27 26 22 21 24 27 19 22 23 21 20 18
13 8 7 6 10 13 8 7 7 4 5 4 3 3 7 8 6 7 8 8 8 10 10 10 13 13 16 13 18 33 20 34 36 33 31 30 28 29 24 18 13 9 13 19
8 5 6 7 8 13 13 14 15 11 10 10 9 10 12 11 11 12 14 16 15 14 15 12 11 11 11 9 3 8 12 9 15 20 30 23 13 11 17 14 11 12 14 14
4 2 5 8 12 14 10 9 11 9 9 10 10 7 9 13 19 22 21 20 17 16 17 15 14 14 17 16 13 12 14 12 7 10 9 12 9 11 16 17 18 17 16 14
6 7 9 12 12 13 11 12 12 11 8 8 8 6 6 9 14 19 20 20 21 19 17 14 15 14 17 16 19 15 11 10 11 11 14 16 12 12 15 16 14 12 15 16
9 9 8 6 11 13 10 9 7 6 4 4 5 7 6 6 10 14 19 19 14 12 8 9 10 8 9 15 13 10 12 14 17 18 19 21 23 16 18 15 17 16 19 19
11 6 7 5 7 9 7 5 5 6 6 4 2 4 6 6 4 5 6 8 9 7 9 6 5 7 6 8 7 7 9 8 10 14 12 13 13 17 18 18 16 15 16 21
11 7 7 8 8 9 6 3 7 7 4 3 3 3 4 4 4 5 7 6 8 10 10 10 9 11 9 8 8 8 11 9 18 17 19 16 18 20 25 25 24 19 24 26
16 14 13 12 7 7 7 8 7 7 5 4 4 3 2 0 2 2 2 4 5 5 6 9 10 10 10 10 12 11 10 10 12 12 12 16 17 19 23 23 26 25 27 27
19 13 8 7 13 11 11 7 8 9 7 3 5 4 5 4 2 0 2 2 2 2 2 1 6 10 10 10 12 13 14 12 10 9 9 12 13 13 15 17 21 21 21 21
13 13 13 12 9 8 9 4 2 10 7 3 2 1 3 7 7 7 5 3 2 2 1 0 1 3 5 8 10 11 10 11 12 13 14 14 15 16 17 17 18 20 21 21
14 14 14 14 12 8 5 8 8 4 4 3 4 4 2 2 7 5 4 5 6 8 8 8 6 5 4 5 6 7 8 10 12 14 15 17 16 16 17 18 20 21 23 24
11 8 11 16 15 13 13 11 9 8 9 9 11 11 9 5 4 4 7 8 7 9 12 13 13 11 10 11 11 10 10 10 11 12 13 14 14 15 16 18 19 19 20 20
13 12 13 14 14 15 16 16 14 13 14 15 18 16 14 14 16 15 17 16 13 10 9 13 15 15 15 17 18 17 15 14 14 14 14 14 16 17 18 20 20 21 21 21
12 12 13 15 15 16 16 18 20 20 21 20 18 19 17 17 18 17 18 18 18 20 16 15 18 19 20 19 22 23 20 19 19 18 20 21 23 23 23 23 22 22 22 21
13 14 16 17 16 16 17 16 16 17 17 15 14 12 13 13 14 16 18 20 18 18 18 18 20 21 21 19 19 21 25 25 23 23 23 22 22 23 24 22 22 24 24 25
8 9 11 13 14 13 12 11 12 13 14 13 12 11 10 11 13 15 19 20 19 20 19 18 19 22 22 22 20 19 18 22 25 28 30 30 29 28 26 27 27 25 27 28
5 5 6 6 6 6 9 9 8 9 9 8 7 8 9 11 15 18 20 22 21 19 18 18 18 19 20 21 21 20 20 20 21 23 24 27 28 28 25 24 25 27 29 31
5 5 6 7 9 12 10 7 10 7 8 8 7 9 12 15 19 23 27 21 18 18 19 20 20 19 20 21 21 21 20 20 20 20 20 20 21 22 22 23 25 24 26 26
5 8 8 8 7 8 9 10 13 13 12 13 15 16 18 22 26 31 20 18 18 18 18 19 19 19 18 18 17 17 16 15 14 14 14 16 18 18 18 18 21 24 26 28
10 12 13 14 14 13 15 16 20 20 20 22 23 25 29 30 33 32 21 20 19 17 16 14 13 13 11 11 9 9 9 9 9 10 10 10 10 11 12 14 17 21 26 29
16 20 21 22 22 22 23 24 25 26 28 26 29 35 36 40 41 40 17 16 17 15 11 9 11 10 5 5 4 5 11 12 10 8 6 7 8 10 11 12 13 15 19 22

GFSNGP_700_spd_123.txt.gz
Wind_Speed
5 7 3 8 7 3 1 6 10 10 15 11 3 2 9 11 9 12 6 10 16 15 21 26 28 31 35 32 31 25 26 28 24 22 21 21 21 20 21 24 27 27 26 25
7 10 11 7 8 8 4 8 8 9 12 9 6 6 6 9 11 10 9 12 14 20 11 19 17 30 35 36 37 32 32 34 32 26 29 26 26 28 25 24 25 27 27 27
9 9 9 15 13 11 8 5 8 12 10 7 9 9 10 7 7 8 9 12 16 19 18 16 16 23 29 34 39 35 33 38 38 28 33 37 40 34 33 30 27 26 27 26
9 9 8 10 16 19 15 14 13 11 13 12 9 11 10 11 13 15 12 9 9 12 19 19 11 11 14 19 28 39 39 37 38 37 37 36 43 40 37 43 31 29 27 26
9 11 14 13 15 16 18 16 10 10 12 15 15 14 12 11 9 8 7 7 8 11 14 13 13 10 11 21 14 29 37 42 41 46 44 41 42 43 41 38 33 32 32 33
11 6 6 7 14 16 12 14 10 7 8 11 11 9 9 8 6 5 7 5 4 5 6 6 8 10 16 8 8 10 13 4 15 14 22 36 37 42 35 34 31 30 29 31
12 10 10 15 11 13 15 10 19 16 15 13 8 7 8 8 8 7 7 9 7 8 9 9 9 9 11 13 11 14 14 9 11 14 16 18 16 23 23 31 31 31 32 32
6 6 8 11 13 15 14 16 15 20 16 19 19 17 12 13 13 12 12 13 13 15 13 11 10 10 12 14 16 15 14 12 6 6 4 10 10 16 15 13 19 20 22 29
8 5 9 12 9 12 15 9 20 23 22 20 20 20 18 19 18 19 19 17 17 18 19 16 16 15 17 14 16 14 11 9 6 6 6 7 8 7 4 9 20 20 17 21
12 9 10 12 11 11 15 13 20 24 20 19 19 18 18 19 22 25 26 26 25 23 22 17 14 14 17 15 11 17 16 15 14 13 12 6 6 4 6 5 4 8 8 11
15 12 12 11 9 9 11 11 14 13 12 12 13 14 14 14 15 17 21 24 22 19 19 16 11 9 9 12 13 17 18 16 17 11 10 11 12 9 11 11 10 12 15 16
16 12 12 11 9 8 8 11 11 10 8 8 11 11 11 11 12 15 15 18 17 9 8 7 7 5 6 6 9 10 12 12 15 16 17 15 15 12 14 17 17 16 16 15
17 18 13 10 8 7 8 9 10 11 13 13 11 9 6 6 7 9 10 13 11 9 8 10 9 8 7 6 6 11 12 12 11 14 12 11 9 13 18 17 16 18 16 17
15 12 13 12 7 6 8 9 8 7 10 10 8 7 6 7 8 7 6 7 7 7 7 7 8 9 9 8 7 9 11 8 13 10 12 13 16 18 16 16 14 16 18 19
17 17 14 14 14 11 10 10 9 9 10 10 9 8 8 7 8 8 7 5 4 4 5 6 6 7 7 8 7 7 8 10 10 11 11 12 12 12 13 14 17 16 16 18
13 15 11 16 13 12 12 12 9 10 11 9 8 7 8 8 9 9 8 7 5 4 3 3 3 2 3 4 5 6 7 8 9 11 12 13 13 14 14 15 15 16 16 17
13 19 21 20 17 14 10 10 6 9 9 7 7 5 5 8 9 8 7 6 6 5 5 4 5 6 6 6 5 5 5 6 7 8 9 9 10 11 12 12 13 14 15 16
11 12 10 9 15 16 14 14 9 8 9 8 7 6 4 4 5 5 4 3 4 6 7 5 6 8 10 11 10 10 10 10 10 10 9 9 10 10 11 11 12 13 14 15
14 17 16 16 16 17 14 14 10 6 8 6 3 2 4 6 6 7 7 7 7 7 11 10 9 9 8 9 10 10 11 13 14 16 16 15 14 14 15 16 17 18 18 17
12 17 16 15 18 17 14 15 11 7 7 7 7 7 6 8 10 10 9 9 10 10 11 13 13 11 12 13 14 15 14 14 14 15 17 17 18 19 18 19 19 18 19 19
9 12 13 12 13 17 19 18 14 11 8 10 11 11 10 12 15 14 12 10 10 10 12 14 15 16 16 15 16 15 16 16 15 14 15 16 18 20 22 22 21 22 22 23
11 12 13 12 13 13 14 13 12 13 13 13 13 12 12 11 11 10 9 8 9 9 12 16 16 16 15 14 14 14 14 15 15 16 16 16 17 19 20 22 23 23 23 24
11 12 13 12 11 12 14 14 13 13 12 11 11 10 9 10 9 8 9 8 9 9 15 18 15 13 13 14 15 15 15 15 16 17 17 18 19 19 19 22 22 21 21 21
10 11 12 13 13 15 13 11 11 11 10 9 8 8 9 8 7 9 12 14 13 12 16 19 19 17 17 18 17 16 16 15 14 15 16 17 17 17 17 17 16 17 17 17
5 7 10 11 12 11 11 13 14 16 14 12 11 10 11 11 11 13 13 16 13 19 21 25 23 26 21 16 14 12 10 9 9 10 11 11 11 11 11 11 12 13 13 14
6 7 9 9 10 10 11 11 11 12 14 15 15 15 15 15 18 19 18 20 22 22 26 31 27 25 16 14 10 8 7 7 7 7 7 8 8 8 8 8 7 7 11 15
13 11 13 13 9 9 13 17 20 20 20 21 21 22 23 25 25 29 28 27 29 25 28 34 30 17 12 10 8 5 4 5 5 5 6 6 6 5 5 4 6 10 13 15